Погода в Советском

Россия / Алтайский край     52°17′06″N   85°24′49″E
темп.,
°C
ветер,
м/с
пор.,
м/с
влажн.,
%
обл.,
%
осадки,
мм/ч
давл.,
гПа
погр.,
м
18 августа, чт
чт1801:00+10ю279678 2.9 1013290
04:00+8юз349337 0.8 101363
07:00+7ююз119265 0.8 101427
10:00+13з247058 0.3 1014590
13:00+15зюз346238 1.9 10141234
16:00+18зюз4539100 0.8 10132383
19:00+14зюз6752100 0.9 10131139
22:00+11ююз3679100 0.3 1014153
19 августа, пт
пт1901:00+9зюз2389100 0.8 101457
04:00+7зюз359357 0.1 1014116
07:00+6зюз269585 0.3 1015177
10:00+10з3481100 0.2 1015555
13:00+13зюз456485 1.0 10151354
16:00+15з454393 0.3 10142006
19:00+14зюз345155 0.3 10141103
22:00+10юз3477100 0.1 1016106
20 августа, сб
сб2001:00+8юз238382 0.1 101742
04:00+9ююз237488 0.0 101787
07:00+9юз2376100 0.1 1019132
10:00+10юз238093 0.2 1019264
13:00+16в124820 0.4 10181422
16:00+18всв343955 0.0 10172049
19:00+17всв444219 0.0 10161247
22:00+10всв33720 0.0 101750
21 августа, вс
вс2101:00+7вюв11833 0.0 101811
04:00+6ююв11874 0.0 101810
07:00+6юв11860 0.0 101811
10:00+14в01550 0.0 1018517
13:00+19ссв22373 0.0 10171412
16:00+21ссв23295 0.0 10162266
19:00+18ссв464262 0.0 1017538
22:00+15всв0153100 0.0 101811
22 августа, пн
пн2201:00+13юз225799 0.0 101923
04:00+11зюз226563 0.0 101944
07:00+10юз127281 0.0 102124
10:00+14юз225683 0.0 1021232
13:00+20ссз124392 0.0 10211549
16:00+17ссв665699 0.0 1021601
19:00+16св456378 0.0 1021520
22:00+12всв238172 0.0 102372